Flag for Finland Weather past 2 weeks in Helsinki, Finland

Now
43 °F

Sunny.


Feels Like: 41 °F
Forecast: 32 / 49 °F
Wind: 3 mph from North

Location: Helsinki Malmi Airport


UV Index: 0 (Low)

Visibility: 10 mi


Pressure: 30.48 "Hg

Humidity: 29%

Dew point: 12 °F

Location of HelsinkiLocation

Historic Weather in Helsinki

°F

Helsinki temperature yesterday

Maximum temperature yesterday: 66 °F (at 1:50 PM)
Minimum temperature yesterday: 45 °F (at 7:50 AM)
Average temperature yesterday: 60 °F

Past Weeks' High & Low Weather Summary

 TemperatureHumidityPressure
High66 °F (Apr 22, 1:50 PM)100% (Apr 12, 2:50 AM)30.48 "Hg (Apr 12, 2:50 AM)
Low27 °F (Apr 16, 5:50 AM)16% (Apr 23, 5:50 PM)29.33 "Hg (Apr 14, 5:20 AM)
Average43 °F64%30.00 "Hg
* Reported Apr 8 9:20 PM — Apr 23 9:20 PM, Helsinki, Weather by CustomWeather, © 2014

Note: Actual official high and low records may vary slightly from our data, if they occured in-between our weather recording intervals... More about our weather records

Advertising

Historic Weather Conditions — Data for Previous 24 hours

 ConditionsComfort  
Time TempWeatherWind HumidityBarometerVisibility
9:20 PM
Apr 23
45 °FPassing clouds.6 mph25%30.48 "HgN/A
8:50 PM45 °FPassing clouds.6 mph27%30.45 "HgN/A
8:20 PM46 °FPassing clouds.8 mph25%30.45 "HgN/A
7:50 PM48 °FPassing clouds.9 mph20%30.45 "HgN/A
7:20 PM48 °FPassing clouds.8 mph20%30.42 "HgN/A
6:50 PM48 °FPassing clouds.9 mph18%30.42 "HgN/A
6:20 PM50 °FPassing clouds.13 mph17%30.42 "HgN/A
5:50 PM50 °FPassing clouds.14 mph16%30.42 "HgN/A
5:20 PM50 °FPassing clouds.14 mph20%30.42 "HgN/A
4:50 PM50 °FPassing clouds.13 mph19%30.42 "HgN/A
4:20 PM52 °FSunny.10 mph20%30.42 "Hg10 mi
3:50 PM50 °FPassing clouds.8 mph20%30.42 "HgN/A
3:20 PM50 °FPassing clouds.13 mph20%30.42 "HgN/A
2:50 PM50 °FPassing clouds.13 mph22%30.42 "HgN/A
2:20 PM50 °FPassing clouds.12 mph24%30.42 "HgN/A
1:50 PM50 °FPassing clouds.8 mph25%30.42 "HgN/A
1:20 PM50 °FPassing clouds.8 mph22%30.39 "HgN/A
12:50 PM48 °FPassing clouds.10 mph23%30.39 "HgN/A
12:20 PM48 °FPassing clouds.12 mph23%30.39 "HgN/A
11:50 AM46 °FPassing clouds.9 mph27%30.39 "HgN/A
11:20 AM46 °FSunny.9 mph27%30.39 "Hg10 mi
10:50 AM45 °FPassing clouds.8 mph31%30.39 "HgN/A
10:20 AM46 °FPassing clouds.9 mph32%30.36 "HgN/A
9:50 AM45 °FPassing clouds.9 mph37%30.36 "HgN/A
9:20 AM43 °FPassing clouds.8 mph39%30.36 "HgN/A
8:50 AM41 °FPassing clouds.9 mph42%30.36 "HgN/A
8:20 AM39 °FPassing clouds.9 mph45%30.33 "HgN/A
7:50 AM39 °FPassing clouds.9 mph45%30.33 "HgN/A
7:20 AM37 °FPassing clouds.8 mph48%30.33 "HgN/A
6:50 AM37 °FPassing clouds.9 mph48%30.30 "HgN/A
6:20 AM37 °FPassing clouds.6 mph48%30.30 "HgN/A
5:50 AM37 °FPassing clouds.6 mph52%30.27 "HgN/A
5:20 AM36 °FPassing clouds.6 mph56%30.27 "HgN/A
4:50 AM37 °FClear.8 mph52%30.27 "Hg10 mi
4:20 AM39 °FPassing clouds.7 mph48%30.24 "HgN/A
3:50 AM39 °FPassing clouds.6 mph48%30.24 "HgN/A
3:20 AM41 °FPassing clouds.6 mph42%30.24 "HgN/A
2:50 AM43 °FPassing clouds.7 mph42%30.21 "HgN/A
2:20 AM43 °FPassing clouds.8 mph42%30.21 "HgN/A
1:50 AM45 °FPassing clouds.8 mph42%30.18 "HgN/A
1:20 AM46 °FPassing clouds.10 mph40%30.18 "HgN/A
12:50 AM46 °FPassing clouds.10 mph40%30.15 "HgN/A
12:20 AM48 °FPassing clouds.12 mph37%30.15 "HgN/A
11:50 PM
Apr 22
50 °FPassing clouds.13 mph35%30.12 "HgN/A
11:20 PM52 °FPassing clouds.10 mph38%30.12 "HgN/A
10:50 PM54 °FPassing clouds.10 mph38%30.09 "HgN/A
10:20 PM54 °FPassing clouds.7 mph38%30.09 "HgN/A
Weather by CustomWeather, © 2014

See weather overview